Location: Camp Roosevelt
(41.7914°N, 81.1673°W)
Time: 17:36:25
(UTC+00:00)

X-37B - Visible Passes

Search period start: 23 June 2021 00:00
Search period end: 03 July 2021 00:00
Orbit: 386 x 389 km, 45.0° (Epoch: 10 June)

Date Brightness Start Highest point End Pass type
(mag) Time Alt. Az. Time Alt. Az. Time Alt. Az.
23 Jun 1.8 02:03:21 10° SSW 02:05:53 22° SE 02:08:26 10° E visible
23 Jun 1.6 03:39:07 10° WSW 03:41:14 39° W 03:41:14 39° W visible
23 Jun 1.8 08:32:12 22° SW 08:32:24 22° SW 08:34:54 10° SSE visible
24 Jun 0.5 02:40:46 10° WSW 02:43:56 67° SSE 02:47:05 10° ENE visible
24 Jun 2.3 04:17:36 10° W 04:19:34 31° WNW 04:19:34 31° WNW visible
25 Jun 1.1 01:42:39 10° SW 01:45:38 38° SSE 01:48:38 10° E visible
25 Jun 1.2 03:19:05 10° W 03:22:13 56° NNW 03:24:24 18° ENE visible
25 Jun 3.3 04:56:03 10° WNW 04:56:42 15° WNW 04:56:42 15° WNW visible
26 Jun 0.7 02:20:38 10° WSW 02:23:49 78° NNW 02:27:00 10° ENE visible
26 Jun 1.7 03:57:37 10° WNW 04:00:41 43° N 04:01:00 42° NNE visible
27 Jun 1.6 02:59:07 10° W 03:02:12 46° N 03:05:06 11° ENE visible
27 Jun 2.8 04:35:59 10° WNW 04:37:22 23° WNW 04:37:22 23° WNW visible
28 Jun 1.3 02:00:37 10° W 02:03:46 56° NNW 02:06:54 10° ENE visible
28 Jun 1.5 03:37:35 10° WNW 03:40:41 47° N 03:41:21 39° NE visible
29 Jun 1.7 02:39:09 10° WNW 02:42:13 44° N 02:45:16 10° ENE visible
29 Jun 2.4 04:15:53 10° WNW 04:17:31 28° WNW 04:17:31 28° WNW visible
30 Jun 1.7 01:40:39 10° W 01:43:44 46° N 01:46:50 10° ENE visible
30 Jun 1.1 03:17:31 10° WNW 03:20:40 58° NNE 03:21:26 42° ENE visible
01 Jul 1.5 02:19:07 10° WNW 02:22:13 47° N 02:25:18 10° E visible
01 Jul 2.1 03:55:48 10° WNW 03:57:36 30° W 03:57:36 30° W visible
02 Jul 0.5 02:57:24 10° WNW 03:00:37 82° NNE 03:01:30 43° E visible
